Time,TemperatureF,DewpointF,PressureIn,WindDirection,WindDirectionDegrees,WindSpeedMPH,WindSpeedGustMPH,Humidity,HourlyPrecipIn,Conditions,Clouds,dailyrainin,SoftwareType,DateUTC
2013-06-02 00:00:00,69.1,58.1,29.98,NNE,33,4.0,4.0,68,0.00,,,1.12,Wunderground v.1.15,2013-06-02 05:00:00,
2013-06-02 00:07:00,68.7,58.0,29.98,NNE,31,6.0,7.0,69,0.00,,,0.00,weatherlink.com 1.10,2013-06-02 05:07:00,
2013-06-02 00:15:00,68.4,58.2,29.98,NNE,12,3.0,5.0,70,0.00,,,0.00,Wunderground v.1.15,2013-06-02 05:15:00,
2013-06-02 00:20:00,68.2,58.0,29.99,NNE,19,3.0,3.0,70,0.00,,,0.00,Wunderground v.1.15,2013-06-02 05:20:00,
2013-06-02 00:22:00,68.1,58.0,29.99,NNE,16,2.0,7.0,70,0.00,,,0.00,weatherlink.com 1.10,2013-06-02 05:22:00,
2013-06-02 00:30:00,67.9,58.1,29.98,NNE,17,4.0,4.0,71,0.00,,,0.00,Wunderground v.1.15,2013-06-02 05:30:00,
2013-06-02 00:35:00,67.8,58.1,29.99,NNE,14,5.0,5.0,71,0.00,,,0.00,Wunderground v.1.15,2013-06-02 05:35:00,
2013-06-02 00:37:00,67.7,58.0,29.98,North,360,2.0,8.0,71,0.00,,,0.00,weatherlink.com 1.10,2013-06-02 05:37:00,
2013-06-02 00:45:00,67.6,58.2,29.98,NNE,26,5.0,9.0,72,0.00,,,0.00,Wunderground v.1.15,2013-06-02 05:45:00,
2013-06-02 00:50:00,67.6,58.2,29.98,NE,37,5.0,8.0,72,0.00,,,0.00,Wunderground v.1.15,2013-06-02 05:50:00,
2013-06-02 00:52:00,67.5,58.0,29.98,NNE,32,5.0,10.0,72,0.00,,,0.00,weatherlink.com 1.10,2013-06-02 05:52:00,
2013-06-02 00:55:00,67.5,58.2,29.98,NE,35,5.0,8.0,72,0.00,,,0.00,Wunderground v.1.15,2013-06-02 05:55:00,
2013-06-02 01:00:00,67.4,58.1,29.98,NE,53,4.0,4.0,72,0.00,,,0.00,Wunderground v.1.15,2013-06-02 06:00:00,
2013-06-02 01:05:00,67.4,58.1,29.98,NNE,28,5.0,7.0,72,0.00,,,0.00,Wunderground v.1.15,2013-06-02 06:05:00,
2013-06-02 01:07:00,67.4,58.0,29.98,North,355,3.0,10.0,72,0.00,,,0.00,weatherlink.com 1.10,2013-06-02 06:07:00,
2013-06-02 01:15:00,67.4,58.1,29.99,ENE,57,5.0,8.0,72,0.00,,,0.00,Wunderground v.1.15,2013-06-02 06:15:00,
2013-06-02 01:20:00,67.4,57.7,29.98,NNE,32,5.0,5.0,71,0.00,,,0.00,Wunderground v.1.15,2013-06-02 06:20:00,
2013-06-02 01:24:00,67.3,58.0,29.98,NE,38,6.0,10.0,72,0.00,,,0.00,weatherlink.com 1.10,2013-06-02 06:24:00,
2013-06-02 01:25:00,67.3,58.0,29.98,NNE,32,5.0,5.0,72,0.00,,,0.00,Wunderground v.1.15,2013-06-02 06:25:00,
2013-06-02 01:30:00,67.2,57.9,29.98,NE,46,4.0,4.0,72,0.00,,,0.00,Wunderground v.1.15,2013-06-02 06:30:00,
2013-06-02 01:38:00,67.1,58.0,29.98,NE,45,4.0,9.0,72,0.00,,,0.00,weatherlink.com 1.10,2013-06-02 06:38:00,
2013-06-02 01:45:00,67.1,57.8,29.98,NE,38,5.0,8.0,72,0.00,,,0.00,Wunderground v.1.15,2013-06-02 06:45:00,
2013-06-02 01:50:00,67.2,57.5,29.99,NE,42,4.0,4.0,71,0.00,,,0.00,Wunderground v.1.15,2013-06-02 06:50:00,
2013-06-02 01:53:00,67.2,57.0,29.98,NE,39,6.0,9.0,71,0.00,,,0.00,weatherlink.com 1.10,2013-06-02 06:53:00,
2013-06-02 02:00:00,67.2,57.5,29.99,NE,47,5.0,12.0,71,0.00,,,0.00,Wunderground v.1.15,2013-06-02 07:00:00,
2013-06-02 02:05:00,67.3,57.6,29.98,NE,51,6.0,12.0,71,0.00,,,0.00,Wunderground v.1.15,2013-06-02 07:05:00,
2013-06-02 02:09:00,67.2,57.0,29.98,NE,38,6.0,9.0,71,0.00,,,0.00,weatherlink.com 1.10,2013-06-02 07:09:00,
2013-06-02 02:15:00,67.1,57.4,29.99,NE,48,5.0,7.0,71,0.00,,,0.00,Wunderground v.1.15,2013-06-02 07:15:00,
2013-06-02 02:24:00,67.1,57.0,29.99,ENE,71,7.0,10.0,71,0.00,,,0.00,weatherlink.com 1.10,2013-06-02 07:24:00,
2013-06-02 02:30:00,66.9,57.2,30.00,NE,36,5.0,7.0,71,0.00,,,0.00,Wunderground v.1.15,2013-06-02 07:30:00,
2013-06-02 02:39:00,66.2,57.0,30.00,NE,51,2.0,8.0,73,0.00,,,0.00,weatherlink.com 1.10,2013-06-02 07:39:00,
2013-06-02 02:45:00,65.7,57.6,30.00,NE,35,4.0,5.0,75,0.00,,,0.00,Wunderground v.1.15,2013-06-02 07:45:00,
2013-06-02 02:50:00,65.5,57.4,30.00,NE,41,4.0,4.0,75,0.00,,,0.00,Wunderground v.1.15,2013-06-02 07:50:00,
2013-06-02 02:53:00,65.4,57.0,30.00,NE,55,2.0,6.0,75,0.00,,,0.00,weatherlink.com 1.10,2013-06-02 07:53:00,
2013-06-02 02:55:00,65.4,57.3,30.00,NE,45,3.0,4.0,75,0.00,,,0.00,Wunderground v.1.15,2013-06-02 07:55:00,
2013-06-02 03:00:00,65.3,57.2,30.00,NE,46,3.0,3.0,75,0.00,,,0.00,Wunderground v.1.15,2013-06-02 08:00:00,
2013-06-02 03:09:00,65.1,57.0,30.00,NE,42,4.0,7.0,76,0.00,,,0.00,weatherlink.com 1.10,2013-06-02 08:09:00,
2013-06-02 03:15:00,65.1,57.3,30.00,NE,40,4.0,5.0,76,0.00,,,0.00,Wunderground v.1.15,2013-06-02 08:15:00,
2013-06-02 03:20:00,65.1,57.3,30.01,NE,44,3.0,4.0,76,0.00,,,0.00,Wunderground v.1.15,2013-06-02 08:20:00,
2013-06-02 03:24:00,65.0,57.0,30.00,NE,40,4.0,6.0,76,0.00,,,0.00,weatherlink.com 1.10,2013-06-02 08:24:00,
2013-06-02 03:30:00,65.0,57.2,30.00,NE,47,4.0,4.0,76,0.00,,,0.00,Wunderground v.1.15,2013-06-02 08:30:00,
2013-06-02 03:35:00,65.0,57.2,30.01,NE,42,4.0,4.0,76,0.00,,,0.00,Wunderground v.1.15,2013-06-02 08:35:00,
2013-06-02 03:39:00,65.1,57.0,30.01,NE,38,3.0,7.0,75,0.00,,,0.00,weatherlink.com 1.10,2013-06-02 08:39:00,
2013-06-02 03:45:00,65.1,57.0,30.01,NE,46,3.0,3.0,75,0.00,,,0.00,Wunderground v.1.15,2013-06-02 08:45:00,
2013-06-02 03:50:00,65.0,56.9,30.01,NNE,29,3.0,5.0,75,0.00,,,0.00,Wunderground v.1.15,2013-06-02 08:50:00,
2013-06-02 03:54:00,65.0,57.0,30.01,NNE,27,2.0,6.0,76,0.00,,,0.00,weatherlink.com 1.10,2013-06-02 08:54:00,
2013-06-02 04:00:00,64.7,57.0,30.01,NNE,25,3.0,3.0,76,0.00,,,0.00,Wunderground v.1.15,2013-06-02 09:00:00,
2013-06-02 04:09:00,64.4,57.0,30.02,North,10,2.0,6.0,77,0.00,,,0.00,weatherlink.com 1.10,2013-06-02 09:09:00,
2013-06-02 04:10:00,64.3,56.9,30.02,North,10,3.0,4.0,77,0.00,,,0.00,Wunderground v.1.15,2013-06-02 09:10:00,
2013-06-02 04:20:00,64.0,57.0,30.02,NE,34,4.0,6.0,78,0.00,,,0.00,Wunderground v.1.15,2013-06-02 09:20:00,
2013-06-02 04:24:00,63.9,57.0,30.02,NNE,14,2.0,10.0,78,0.00,,,0.00,weatherlink.com 1.10,2013-06-02 09:24:00,
2013-06-02 04:30:00,63.8,56.8,30.02,North,5,4.0,4.0,78,0.00,,,0.00,Wunderground v.1.15,2013-06-02 09:30:00,
2013-06-02 04:39:00,63.8,57.0,30.03,NNE,13,3.0,8.0,79,0.00,,,0.00,weatherlink.com 1.10,2013-06-02 09:39:00,
2013-06-02 04:45:00,63.6,57.0,30.02,North,355,5.0,7.0,79,0.00,,,0.00,Wunderground v.1.15,2013-06-02 09:45:00,
2013-06-02 04:50:00,63.4,56.8,30.02,NNE,13,5.0,5.0,79,0.00,,,0.00,Wunderground v.1.15,2013-06-02 09:50:00,
2013-06-02 04:54:00,63.2,57.0,30.03,NE,34,4.0,9.0,80,0.00,,,0.00,weatherlink.com 1.10,2013-06-02 09:54:00,
2013-06-02 05:00:00,63.2,56.9,30.03,NNE,24,5.0,5.0,80,0.00,,,0.00,Wunderground v.1.15,2013-06-02 10:00:00,
2013-06-02 05:05:00,63.1,56.8,30.03,North,355,5.0,8.0,80,0.00,,,0.00,Wunderground v.1.15,2013-06-02 10:05:00,
2013-06-02 05:09:00,63.1,57.0,30.04,North,360,4.0,10.0,80,0.00,,,0.00,weatherlink.com 1.10,2013-06-02 10:09:00,
2013-06-02 05:15:00,63.1,56.8,30.04,NNE,15,5.0,5.0,80,0.00,,,0.00,Wunderground v.1.15,2013-06-02 10:15:00,
2013-06-02 05:20:00,63.0,57.1,30.04,NNE,15,5.0,6.0,81,0.00,,,0.00,Wunderground v.1.15,2013-06-02 10:20:00,
2013-06-02 05:26:00,62.9,57.0,30.05,North,355,7.0,7.0,81,0.00,,,0.00,weatherlink.com 1.10,2013-06-02 10:26:00,
2013-06-02 05:35:00,62.7,56.8,30.05,North,5,4.0,5.0,81,0.00,,,0.00,Wunderground v.1.15,2013-06-02 10:35:00,
2013-06-02 05:41:00,62.5,57.0,30.05,NNW,348,5.0,7.0,82,0.00,,,0.00,weatherlink.com 1.10,2013-06-02 10:41:00,
2013-06-02 05:45:00,62.4,56.8,30.05,North,355,4.0,5.0,82,0.00,,,0.00,Wunderground v.1.15,2013-06-02 10:45:00,
2013-06-02 05:50:00,62.3,56.7,30.05,North,355,3.0,3.0,82,0.00,,,0.00,Wunderground v.1.15,2013-06-02 10:50:00,
2013-06-02 05:55:00,62.1,56.9,30.05,North,355,1.0,3.0,83,0.00,,,0.00,Wunderground v.1.15,2013-06-02 10:55:00,
2013-06-02 05:56:00,62.1,57.0,30.05,North,351,2.0,4.0,83,0.00,,,0.00,weatherlink.com 1.10,2013-06-02 10:56:00,
2013-06-02 06:05:00,61.9,57.0,30.05,North,350,2.0,3.0,84,0.00,,,0.00,Wunderground v.1.15,2013-06-02 11:05:00,
2013-06-02 06:10:00,61.8,56.9,30.06,North,351,2.0,3.0,84,0.00,,,0.00,Wunderground v.1.15,2013-06-02 11:10:00,
2013-06-02 06:11:00,61.7,57.0,30.05,North,355,5.0,6.0,84,0.00,,,0.00,weatherlink.com 1.10,2013-06-02 11:11:00,
2013-06-02 06:20:00,61.5,56.9,30.05,North,355,3.0,4.0,85,0.00,,,0.00,Wunderground v.1.15,2013-06-02 11:20:00,
2013-06-02 06:26:00,61.4,57.0,30.05,North,355,5.0,9.0,85,0.00,,,0.00,weatherlink.com 1.10,2013-06-02 11:26:00,
2013-06-02 06:35:00,61.3,56.8,30.06,NNW,346,4.0,5.0,85,0.00,,,0.00,Wunderground v.1.15,2013-06-02 11:35:00,
2013-06-02 06:41:00,61.3,57.0,30.06,North,10,5.0,7.0,85,0.00,,,0.00,weatherlink.com 1.10,2013-06-02 11:41:00,
2013-06-02 06:45:00,61.3,56.8,30.06,NNE,21,4.0,5.0,85,0.00,,,0.00,Wunderground v.1.15,2013-06-02 11:45:00,
2013-06-02 06:55:00,61.4,56.8,30.06,North,350,4.0,5.0,85,0.00,,,0.00,Wunderground v.1.15,2013-06-02 11:55:00,
2013-06-02 06:56:00,61.5,57.0,30.06,NNW,348,4.0,8.0,85,0.00,,,0.00,weatherlink.com 1.10,2013-06-02 11:56:00,
2013-06-02 07:00:00,61.6,57.0,30.06,North,360,4.0,4.0,85,0.00,,,0.00,Wunderground v.1.15,2013-06-02 12:00:00,
2013-06-02 07:05:00,61.8,56.9,30.06,North,360,4.0,5.0,84,0.00,,,0.00,Wunderground v.1.15,2013-06-02 12:05:00,
2013-06-02 07:10:00,62.0,57.1,30.06,NNE,19,4.0,4.0,84,0.00,,,0.00,Wunderground v.1.15,2013-06-02 12:10:00,
2013-06-02 07:11:00,62.1,57.0,30.06,North,9,4.0,8.0,84,0.00,,,0.00,weatherlink.com 1.10,2013-06-02 12:11:00,
2013-06-02 07:20:00,62.6,57.4,30.07,NE,37,4.0,6.0,83,0.00,,,0.00,Wunderground v.1.15,2013-06-02 12:20:00,
2013-06-02 07:25:00,62.8,57.2,30.07,NNE,24,5.0,6.0,82,0.00,,,0.00,Wunderground v.1.15,2013-06-02 12:25:00,
2013-06-02 07:26:00,62.9,57.0,30.07,NNE,24,0.0,10.0,82,0.00,,,0.00,weatherlink.com 1.10,2013-06-02 12:26:00,
2013-06-02 07:35:00,63.3,57.4,30.08,NNE,24,5.0,5.0,81,0.00,,,0.00,Wunderground v.1.15,2013-06-02 12:35:00,
2013-06-02 07:40:00,63.6,57.3,30.08,North,5,4.0,5.0,80,0.00,,,0.00,Wunderground v.1.15,2013-06-02 12:40:00,
2013-06-02 07:41:00,63.6,57.0,30.08,North,11,7.0,9.0,80,0.00,,,0.00,weatherlink.com 1.10,2013-06-02 12:41:00,
2013-06-02 07:45:00,63.6,57.0,30.08,NNW,348,5.0,8.0,79,0.00,,,0.00,Wunderground v.1.15,2013-06-02 12:45:00,
2013-06-02 07:50:00,63.8,57.2,30.08,North,5,6.0,7.0,79,0.00,,,0.00,Wunderground v.1.15,2013-06-02 12:50:00,
2013-06-02 07:56:00,64.0,57.0,30.08,North,5,5.0,13.0,78,0.00,,,0.00,weatherlink.com 1.10,2013-06-02 12:56:00,
2013-06-02 08:05:00,64.3,56.2,30.08,North,350,7.0,10.0,75,0.00,,,0.00,Wunderground v.1.15,2013-06-02 13:05:00,
2013-06-02 08:10:00,64.4,56.3,30.08,North,5,7.0,7.0,75,0.00,,,0.00,Wunderground v.1.15,2013-06-02 13:10:00,
2013-06-02 08:11:00,64.4,56.0,30.08,NNE,20,3.0,13.0,75,0.00,,,0.00,weatherlink.com 1.10,2013-06-02 13:11:00,
2013-06-02 08:20:00,64.9,56.4,30.08,North,5,7.0,12.0,74,0.00,,,0.00,Wunderground v.1.15,2013-06-02 13:20:00,
2013-06-02 08:25:00,64.9,56.4,30.09,North,360,7.0,12.0,74,0.00,,,0.00,Wunderground v.1.15,2013-06-02 13:25:00,
2013-06-02 08:26:00,65.0,57.0,30.09,NNW,341,4.0,13.0,74,0.00,,,0.00,weatherlink.com 1.10,2013-06-02 13:26:00,
2013-06-02 08:35:00,65.4,56.5,30.08,NNW,335,6.0,6.0,73,0.00,,,0.00,Wunderground v.1.15,2013-06-02 13:35:00,
2013-06-02 08:41:00,65.8,56.0,30.09,North,5,7.0,11.0,71,0.00,,,0.00,weatherlink.com 1.10,2013-06-02 13:41:00,
2013-06-02 08:50:00,66.2,55.7,30.08,North,355,7.0,7.0,69,0.00,,,0.00,Wunderground v.1.15,2013-06-02 13:50:00,
2013-06-02 08:57:00,66.4,55.0,30.09,NNW,329,8.0,13.0,67,0.00,,,0.00,weatherlink.com 1.10,2013-06-02 13:57:00,
2013-06-02 09:00:00,66.6,55.3,30.09,North,355,6.0,6.0,67,0.00,,,0.00,Wunderground v.1.15,2013-06-02 14:00:00,
2013-06-02 09:05:00,67.0,55.7,30.09,North,9,5.0,6.0,67,0.00,,,0.00,Wunderground v.1.15,2013-06-02 14:05:00,
2013-06-02 09:10:00,67.1,54.9,30.09,North,355,5.0,6.0,65,0.00,,,0.00,Wunderground v.1.15,2013-06-02 14:10:00,
2013-06-02 09:12:00,67.1,55.0,30.09,North,355,7.0,13.0,65,0.00,,,0.00,weatherlink.com 1.10,2013-06-02 14:12:00,
2013-06-02 09:20:00,67.2,53.3,30.09,NNE,13,9.0,9.0,61,0.00,,,0.00,Wunderground v.1.15,2013-06-02 14:20:00,
2013-06-02 09:25:00,67.7,53.3,30.10,NNW,344,8.0,12.0,60,0.00,,,0.00,Wunderground v.1.15,2013-06-02 14:25:00,
2013-06-02 09:27:00,67.6,53.0,30.09,NE,54,5.0,15.0,59,0.00,,,0.00,weatherlink.com 1.10,2013-06-02 14:27:00,
2013-06-02 09:35:00,68.1,53.2,30.10,North,350,7.0,8.0,59,0.00,,,0.00,Wunderground v.1.15,2013-06-02 14:35:00,
2013-06-02 09:40:00,68.7,54.3,30.09,NNE,17,7.0,7.0,60,0.00,,,0.00,Wunderground v.1.15,2013-06-02 14:40:00,
2013-06-02 09:42:00,69.0,54.0,30.09,North,5,6.0,11.0,60,0.00,,,0.00,weatherlink.com 1.10,2013-06-02 14:42:00,
2013-06-02 09:50:00,69.0,51.2,30.09,NNE,20,8.0,9.0,53,0.00,,,0.00,Wunderground v.1.15,2013-06-02 14:50:00,
2013-06-02 09:55:00,69.1,51.8,30.09,NNE,21,10.0,10.0,54,0.00,,,0.00,Wunderground v.1.15,2013-06-02 14:55:00,
2013-06-02 09:57:00,69.2,52.0,30.09,North,5,8.0,16.0,55,0.00,,,0.00,weatherlink.com 1.10,2013-06-02 14:57:00,
2013-06-02 10:05:00,69.2,52.8,30.09,North,355,8.0,10.0,56,0.00,,,0.00,Wunderground v.1.15,2013-06-02 15:05:00,
2013-06-02 10:10:00,69.5,51.6,30.09,North,355,9.0,9.0,53,0.00,,,0.00,Wunderground v.1.15,2013-06-02 15:10:00,
2013-06-02 10:12:00,69.7,52.0,30.09,NNW,343,6.0,16.0,53,0.00,,,0.00,weatherlink.com 1.10,2013-06-02 15:12:00,
2013-06-02 10:20:00,70.0,51.0,30.09,North,355,8.0,12.0,51,0.00,,,0.00,Wunderground v.1.15,2013-06-02 15:20:00,
2013-06-02 10:27:00,70.0,51.0,30.09,NNW,339,9.0,16.0,51,0.00,,,0.00,weatherlink.com 1.10,2013-06-02 15:27:00,
2013-06-02 10:35:00,70.6,51.1,30.10,NNW,348,8.0,9.0,50,0.00,,,0.00,Wunderground v.1.15,2013-06-02 15:35:00,
2013-06-02 10:44:00,70.8,51.0,30.09,North,360,15.0,18.0,49,0.00,,,0.00,weatherlink.com 1.10,2013-06-02 15:44:00,
2013-06-02 10:45:00,70.8,50.7,30.09,North,355,8.0,11.0,49,0.00,,,0.00,Wunderground v.1.15,2013-06-02 15:45:00,
2013-06-02 10:50:00,70.8,50.7,30.10,North,355,8.0,8.0,49,0.00,,,0.00,Wunderground v.1.15,2013-06-02 15:50:00,
2013-06-02 10:55:00,70.8,50.1,30.10,North,355,9.0,14.0,48,0.00,,,0.00,Wunderground v.1.15,2013-06-02 15:55:00,
2013-06-02 10:59:00,70.6,49.0,30.10,NNW,345,12.0,19.0,47,0.00,,,0.00,weatherlink.com 1.10,2013-06-02 15:59:00,
2013-06-02 11:00:00,70.6,49.4,30.10,North,355,11.0,11.0,47,0.00,,,0.00,Wunderground v.1.15,2013-06-02 16:00:00,
2013-06-02 11:05:00,71.0,49.7,30.10,NNE,23,10.0,11.0,47,0.00,,,0.00,Wunderground v.1.15,2013-06-02 16:05:00,
2013-06-02 11:13:00,71.5,50.0,30.10,NNE,23,8.0,16.0,47,0.00,,,0.00,weatherlink.com 1.10,2013-06-02 16:13:00,
2013-06-02 11:20:00,71.6,49.7,30.10,North,5,8.0,8.0,46,0.00,,,0.00,Wunderground v.1.15,2013-06-02 16:20:00,
2013-06-02 11:25:00,71.8,49.9,30.10,NNW,342,8.0,9.0,46,0.00,,,0.00,Wunderground v.1.15,2013-06-02 16:25:00,
2013-06-02 11:28:00,71.8,50.0,30.09,North,355,11.0,17.0,46,0.00,,,0.00,weatherlink.com 1.10,2013-06-02 16:28:00,
2013-06-02 11:35:00,72.2,47.8,30.09,NNW,329,9.0,9.0,42,0.00,,,0.00,Wunderground v.1.15,2013-06-02 16:35:00,
2013-06-02 11:40:00,72.2,48.5,30.09,NNW,342,9.0,14.0,43,0.00,,,0.00,Wunderground v.1.15,2013-06-02 16:40:00,
2013-06-02 11:44:00,72.1,48.0,30.09,North,349,11.0,19.0,42,0.00,,,0.00,weatherlink.com 1.10,2013-06-02 16:44:00,
2013-06-02 11:50:00,72.5,48.7,30.08,North,5,9.0,11.0,43,0.00,,,0.00,Wunderground v.1.15,2013-06-02 16:50:00,
2013-06-02 11:55:00,72.9,48.5,30.08,North,5,8.0,14.0,42,0.00,,,0.00,Wunderground v.1.15,2013-06-02 16:55:00,
2013-06-02 11:59:00,72.6,49.0,30.08,North,350,7.0,16.0,43,0.00,,,0.00,weatherlink.com 1.10,2013-06-02 16:59:00,
2013-06-02 12:05:00,72.6,50.0,30.08,NNW,348,9.0,13.0,45,0.00,,,0.00,Wunderground v.1.15,2013-06-02 17:05:00,
2013-06-02 12:10:00,72.6,48.8,30.08,NNW,336,9.0,12.0,43,0.00,,,0.00,Wunderground v.1.15,2013-06-02 17:10:00,
2013-06-02 12:14:00,72.6,49.0,30.08,NNW,348,14.0,15.0,44,0.00,,,0.00,weatherlink.com 1.10,2013-06-02 17:14:00,
2013-06-02 12:20:00,72.8,49.6,30.08,NW,323,9.0,9.0,44,0.00,,,0.00,Wunderground v.1.15,2013-06-02 17:20:00,
2013-06-02 12:28:00,73.0,49.0,30.08,NNW,342,13.0,18.0,43,0.00,,,0.00,weatherlink.com 1.10,2013-06-02 17:28:00,
2013-06-02 12:35:00,73.0,49.8,30.08,North,5,8.0,8.0,44,0.00,,,0.00,Wunderground v.1.15,2013-06-02 17:35:00,
2013-06-02 12:40:00,73.2,50.0,30.07,NNW,333,8.0,8.0,44,0.00,,,0.00,Wunderground v.1.15,2013-06-02 17:40:00,
2013-06-02 12:44:00,73.2,49.0,30.07,NNW,343,7.0,13.0,43,0.00,,,0.00,weatherlink.com 1.10,2013-06-02 17:44:00,
2013-06-02 12:50:00,73.0,51.6,30.07,NNW,348,6.0,6.0,47,0.00,,,0.00,Wunderground v.1.15,2013-06-02 17:50:00,
2013-06-02 12:55:00,73.4,51.4,30.07,WNW,296,7.0,7.0,46,0.00,,,0.00,Wunderground v.1.15,2013-06-02 17:55:00,
2013-06-02 12:59:00,73.4,51.0,30.07,NNW,333,11.0,16.0,45,0.00,,,0.00,weatherlink.com 1.10,2013-06-02 17:59:00,
2013-06-02 13:05:00,73.3,50.7,30.06,North,350,7.0,7.0,45,0.00,,,0.00,Wunderground v.1.15,2013-06-02 18:05:00,
2013-06-02 13:14:00,73.8,50.0,30.06,NNE,22,7.0,15.0,44,0.00,,,0.00,weatherlink.com 1.10,2013-06-02 18:14:00,
2013-06-02 13:20:00,73.8,50.5,30.06,North,355,7.0,7.0,44,0.00,,,0.00,Wunderground v.1.15,2013-06-02 18:20:00,
2013-06-02 13:29:00,74.0,51.0,30.05,North,355,9.0,15.0,45,0.00,,,0.00,weatherlink.com 1.10,2013-06-02 18:29:00,
2013-06-02 13:35:00,74.3,51.6,30.05,NNW,344,7.0,10.0,45,0.00,,,0.00,Wunderground v.1.15,2013-06-02 18:35:00,
2013-06-02 13:40:00,74.4,51.7,30.05,NNW,331,7.0,8.0,45,0.00,,,0.00,Wunderground v.1.15,2013-06-02 18:40:00,
2013-06-02 13:44:00,74.3,51.0,30.04,North,5,12.0,17.0,44,0.00,,,0.00,weatherlink.com 1.10,2013-06-02 18:44:00,
2013-06-02 13:50:00,74.5,51.2,30.04,North,11,8.0,8.0,44,0.00,,,0.00,Wunderground v.1.15,2013-06-02 18:50:00,
2013-06-02 13:59:00,74.6,51.0,30.04,NNW,329,10.0,20.0,44,0.00,,,0.00,weatherlink.com 1.10,2013-06-02 18:59:00,
2013-06-02 14:05:00,74.7,51.3,30.04,NNW,342,9.0,10.0,44,0.00,,,0.00,Wunderground v.1.15,2013-06-02 19:05:00,
2013-06-02 14:10:00,74.9,52.1,30.03,North,5,7.0,11.0,45,0.00,,,0.00,Wunderground v.1.15,2013-06-02 19:10:00,
2013-06-02 14:14:00,75.0,52.0,30.03,North,5,13.0,14.0,44,0.00,,,0.00,weatherlink.com 1.10,2013-06-02 19:14:00,
2013-06-02 14:20:00,74.9,51.5,30.03,NNW,340,9.0,14.0,44,0.00,,,0.00,Wunderground v.1.15,2013-06-02 19:20:00,
2013-06-02 14:29:00,75.3,52.0,30.03,North,360,6.0,17.0,44,0.00,,,0.00,weatherlink.com 1.10,2013-06-02 19:29:00,
2013-06-02 14:35:00,75.3,52.5,30.02,NNW,331,8.0,8.0,45,0.00,,,0.00,Wunderground v.1.15,2013-06-02 19:35:00,
2013-06-02 14:44:00,75.8,53.0,30.02,NE,49,7.0,11.0,45,0.00,,,0.00,weatherlink.com 1.10,2013-06-02 19:44:00,
2013-06-02 14:50:00,76.4,52.9,30.02,NNE,30,7.0,9.0,44,0.00,,,0.00,Wunderground v.1.15,2013-06-02 19:50:00,
2013-06-02 14:55:00,76.3,53.4,30.02,NE,35,6.0,9.0,45,0.00,,,0.00,Wunderground v.1.15,2013-06-02 19:55:00,
2013-06-02 14:59:00,76.3,53.0,30.02,NE,56,6.0,12.0,45,0.00,,,0.00,weatherlink.com 1.10,2013-06-02 19:59:00,
2013-06-02 15:05:00,76.1,53.2,30.01,NE,40,6.0,6.0,45,0.00,,,0.00,Wunderground v.1.15,2013-06-02 20:05:00,
2013-06-02 15:10:00,76.2,53.3,30.01,North,355,6.0,6.0,45,0.00,,,0.00,Wunderground v.1.15,2013-06-02 20:10:00,
2013-06-02 15:15:00,76.1,53.8,30.01,North,355,5.0,6.0,46,0.00,,,0.00,Wunderground v.1.15,2013-06-02 20:15:00,
2013-06-02 15:16:00,76.2,54.0,30.02,NNW,346,5.0,13.0,46,0.00,,,0.00,weatherlink.com 1.10,2013-06-02 20:16:00,
2013-06-02 15:25:00,76.7,53.8,30.01,North,355,4.0,10.0,45,0.00,,,0.00,Wunderground v.1.15,2013-06-02 20:25:00,
2013-06-02 15:31:00,76.7,54.0,30.01,NNW,344,8.0,14.0,45,0.00,,,0.00,weatherlink.com 1.10,2013-06-02 20:31:00,
2013-06-02 15:40:00,76.4,53.5,30.01,NNE,19,7.0,7.0,45,0.00,,,0.00,Wunderground v.1.15,2013-06-02 20:40:00,
2013-06-02 15:45:00,76.7,53.1,30.00,North,11,6.0,7.0,44,0.00,,,0.00,Wunderground v.1.15,2013-06-02 20:45:00,
2013-06-02 15:46:00,76.7,53.0,30.00,North,355,8.0,13.0,44,0.00,,,0.00,weatherlink.com 1.10,2013-06-02 20:46:00,
2013-06-02 15:50:00,76.9,53.9,30.00,WNW,298,6.0,6.0,45,0.00,,,0.00,Wunderground v.1.15,2013-06-02 20:50:00,
2013-06-02 15:55:00,76.8,53.2,30.00,NNE,20,6.0,6.0,44,0.00,,,0.00,Wunderground v.1.15,2013-06-02 20:55:00,
2013-06-02 16:00:00,76.7,53.1,30.00,North,5,7.0,7.0,44,0.00,,,0.00,Wunderground v.1.15,2013-06-02 21:00:00,
2013-06-02 16:01:00,76.6,54.0,30.00,NNW,339,7.0,12.0,45,0.00,,,0.00,weatherlink.com 1.10,2013-06-02 21:01:00,
2013-06-02 16:10:00,76.9,53.3,29.99,North,5,7.0,7.0,44,0.00,,,0.00,Wunderground v.1.15,2013-06-02 21:10:00,
2013-06-02 16:16:00,76.9,53.0,29.99,NNE,29,3.0,14.0,44,0.00,,,0.00,weatherlink.com 1.10,2013-06-02 21:16:00,
2013-06-02 16:25:00,77.5,53.2,29.99,North,360,5.0,7.0,43,0.00,,,0.00,Wunderground v.1.15,2013-06-02 21:25:00,
2013-06-02 16:31:00,77.2,53.0,29.98,NW,304,4.0,12.0,43,0.00,,,0.00,weatherlink.com 1.10,2013-06-02 21:31:00,
2013-06-02 16:35:00,77.2,54.2,29.99,NNE,17,6.0,6.0,45,0.00,,,0.00,Wunderground v.1.15,2013-06-02 21:35:00,
2013-06-02 16:40:00,77.4,53.8,29.98,NNW,346,5.0,5.0,44,0.00,,,0.00,Wunderground v.1.15,2013-06-02 21:40:00,
2013-06-02 16:45:00,77.3,53.7,29.98,NNE,14,5.0,8.0,44,0.00,,,0.00,Wunderground v.1.15,2013-06-02 21:45:00,
2013-06-02 16:46:00,77.2,54.0,29.98,North,11,8.0,13.0,44,0.00,,,0.00,weatherlink.com 1.10,2013-06-02 21:46:00,
2013-06-02 16:55:00,77.2,53.6,29.98,NNE,22,7.0,7.0,44,0.00,,,0.00,Wunderground v.1.15,2013-06-02 21:55:00,
2013-06-02 17:00:00,77.1,53.5,29.98,NNE,26,7.0,11.0,44,0.00,,,0.00,Wunderground v.1.15,2013-06-02 22:00:00,
2013-06-02 17:01:00,76.9,53.0,29.98,NNE,33,8.0,13.0,44,0.00,,,0.00,weatherlink.com 1.10,2013-06-02 22:01:00,
2013-06-02 17:10:00,77.1,53.5,29.97,North,351,7.0,15.0,44,0.00,,,0.00,Wunderground v.1.15,2013-06-02 22:10:00,
2013-06-02 17:15:00,77.1,53.5,29.97,North,9,8.0,15.0,44,0.00,,,0.00,Wunderground v.1.15,2013-06-02 22:15:00,
2013-06-02 17:16:00,77.0,53.0,29.97,NE,35,7.0,15.0,43,0.00,,,0.00,weatherlink.com 1.10,2013-06-02 22:16:00,
2013-06-02 17:25:00,76.8,53.2,29.97,NNE,24,7.0,8.0,44,0.00,,,0.00,Wunderground v.1.15,2013-06-02 22:25:00,
2013-06-02 17:31:00,77.2,54.0,29.97,North,355,11.0,13.0,45,0.00,,,0.00,weatherlink.com 1.10,2013-06-02 22:31:00,
2013-06-02 17:40:00,77.1,53.5,29.96,NNE,26,7.0,7.0,44,0.00,,,0.00,Wunderground v.1.15,2013-06-02 22:40:00,
2013-06-02 17:45:00,77.0,54.0,29.96,North,5,6.0,7.0,45,0.00,,,0.00,Wunderground v.1.15,2013-06-02 22:45:00,
2013-06-02 17:46:00,77.1,53.0,29.96,NNW,348,11.0,11.0,44,0.00,,,0.00,weatherlink.com 1.10,2013-06-02 22:46:00,
2013-06-02 17:50:00,77.0,53.4,29.96,NNW,347,7.0,7.0,44,0.00,,,0.00,Wunderground v.1.15,2013-06-02 22:50:00,
2013-06-02 17:55:00,77.5,53.9,29.96,NNE,22,6.0,7.0,44,0.00,,,0.00,Wunderground v.1.15,2013-06-02 22:55:00,
2013-06-02 18:01:00,77.2,53.0,29.96,NE,39,5.0,13.0,43,0.00,,,0.00,weatherlink.com 1.10,2013-06-02 23:01:00,
2013-06-02 18:05:00,77.1,53.5,29.96,NE,49,6.0,7.0,44,0.00,,,0.00,Wunderground v.1.15,2013-06-02 23:05:00,
2013-06-02 18:10:00,77.1,52.9,29.96,North,355,6.0,11.0,43,0.00,,,0.00,Wunderground v.1.15,2013-06-02 23:10:00,
2013-06-02 18:15:00,76.7,53.8,29.96,NNW,335,8.0,11.0,45,0.00,,,0.00,Wunderground v.1.15,2013-06-02 23:15:00,
2013-06-02 18:16:00,76.7,54.0,29.96,North,360,5.0,12.0,45,0.00,,,0.00,weatherlink.com 1.10,2013-06-02 23:16:00,
2013-06-02 18:25:00,76.8,53.8,29.96,NNE,26,7.0,7.0,45,0.00,,,0.00,Wunderground v.1.15,2013-06-02 23:25:00,
2013-06-02 18:30:00,76.9,53.9,29.95,North,360,6.0,7.0,45,0.00,,,0.00,Wunderground v.1.15,2013-06-02 23:30:00,
2013-06-02 18:32:00,76.9,54.0,29.95,North,350,10.0,11.0,45,0.00,,,0.00,weatherlink.com 1.10,2013-06-02 23:32:00,
2013-06-02 18:40:00,77.1,53.5,29.95,North,5,6.0,6.0,44,0.00,,,0.00,Wunderground v.1.15,2013-06-02 23:40:00,
2013-06-02 18:47:00,76.9,54.0,29.95,NNE,14,5.0,13.0,45,0.00,,,0.00,weatherlink.com 1.10,2013-06-02 23:47:00,
2013-06-02 18:50:00,76.9,53.9,29.95,North,355,6.0,7.0,45,0.00,,,0.00,Wunderground v.1.15,2013-06-02 23:50:00,
2013-06-02 18:55:00,76.6,53.7,29.95,NNE,15,6.0,7.0,45,0.00,,,0.00,Wunderground v.1.15,2013-06-02 23:55:00,
2013-06-02 19:00:00,76.3,54.0,29.95,NNE,31,6.0,6.0,46,0.00,,,0.00,Wunderground v.1.15,2013-06-03 00:00:00,
2013-06-02 19:02:00,76.3,54.0,29.95,ENE,61,5.0,9.0,46,0.00,,,0.00,weatherlink.com 1.10,2013-06-03 00:02:00,
2013-06-02 19:10:00,76.2,53.9,29.95,NE,34,6.0,6.0,46,0.00,,,0.00,Wunderground v.1.15,2013-06-03 00:10:00,
2013-06-02 19:17:00,76.2,54.0,29.95,NNE,32,7.0,11.0,46,0.00,,,0.00,weatherlink.com 1.10,2013-06-03 00:17:00,
2013-06-02 19:25:00,75.9,54.2,29.95,NNE,22,5.0,8.0,47,0.00,,,0.00,Wunderground v.1.15,2013-06-03 00:25:00,
2013-06-02 19:30:00,75.8,54.1,29.95,NE,40,5.0,5.0,47,0.00,,,0.00,Wunderground v.1.15,2013-06-03 00:30:00,
2013-06-02 19:32:00,75.8,54.0,29.95,NE,42,7.0,9.0,47,0.00,,,0.00,weatherlink.com 1.10,2013-06-03 00:32:00,
2013-06-02 19:35:00,75.7,54.0,29.95,NE,44,5.0,5.0,47,0.00,,,0.00,Wunderground v.1.15,2013-06-03 00:35:00,
2013-06-02 19:40:00,75.5,54.4,29.95,NNE,28,6.0,6.0,48,0.00,,,0.00,Wunderground v.1.15,2013-06-03 00:40:00,
2013-06-02 19:45:00,75.5,54.4,29.95,ENE,60,5.0,6.0,48,0.00,,,0.00,Wunderground v.1.15,2013-06-03 00:45:00,
2013-06-02 19:47:00,75.5,54.0,29.95,NNE,25,4.0,9.0,48,0.00,,,0.00,weatherlink.com 1.10,2013-06-03 00:47:00,
2013-06-02 19:55:00,75.4,54.3,29.95,NE,41,4.0,5.0,48,0.00,,,0.00,Wunderground v.1.15,2013-06-03 00:55:00,
2013-06-02 20:00:00,75.2,54.7,29.95,NE,39,4.0,6.0,49,0.00,,,0.00,Wunderground v.1.15,2013-06-03 01:00:00,
2013-06-02 20:02:00,75.0,54.0,29.95,NNE,19,5.0,7.0,49,0.00,,,0.00,weatherlink.com 1.10,2013-06-03 01:02:00,
2013-06-02 20:05:00,74.8,54.9,29.95,NE,41,4.0,6.0,50,0.00,,,0.00,Wunderground v.1.15,2013-06-03 01:05:00,
2013-06-02 20:10:00,74.7,55.4,29.96,NE,41,3.0,3.0,51,0.00,,,0.00,Wunderground v.1.15,2013-06-03 01:10:00,
2013-06-02 20:15:00,74.4,55.6,29.96,NE,51,2.0,3.0,52,0.00,,,0.00,Wunderground v.1.15,2013-06-03 01:15:00,
2013-06-02 20:17:00,74.3,56.0,29.96,NE,56,3.0,5.0,53,0.00,,,0.00,weatherlink.com 1.10,2013-06-03 01:17:00,
2013-06-02 20:25:00,73.8,56.1,29.96,ENE,62,2.0,3.0,54,0.00,,,0.00,Wunderground v.1.15,2013-06-03 01:25:00,
2013-06-02 20:30:00,73.6,56.4,29.96,NE,45,3.0,4.0,55,0.00,,,0.00,Wunderground v.1.15,2013-06-03 01:30:00,
2013-06-02 20:32:00,73.4,56.0,29.96,NE,38,5.0,7.0,55,0.00,,,0.00,weatherlink.com 1.10,2013-06-03 01:32:00,
2013-06-02 20:40:00,73.0,56.4,29.96,ENE,74,2.0,4.0,56,0.00,,,0.00,Wunderground v.1.15,2013-06-03 01:40:00,
2013-06-02 20:49:00,72.5,56.0,29.96,ENE,74,1.0,5.0,57,0.00,,,0.00,weatherlink.com 1.10,2013-06-03 01:49:00,
2013-06-02 20:55:00,72.2,56.1,29.96,East,96,3.0,5.0,57,0.00,,,0.00,Wunderground v.1.15,2013-06-03 01:55:00,
2013-06-02 21:00:00,72.1,56.0,29.96,East,100,3.0,3.0,57,0.00,,,0.00,Wunderground v.1.15,2013-06-03 02:00:00,
2013-06-02 21:04:00,72.0,56.0,29.96,East,98,2.0,5.0,58,0.00,,,0.00,weatherlink.com 1.10,2013-06-03 02:04:00,
2013-06-02 21:10:00,71.7,56.6,29.96,East,96,2.0,3.0,59,0.00,,,0.00,Wunderground v.1.15,2013-06-03 02:10:00,
2013-06-02 21:15:00,71.5,56.4,29.96,ENE,64,2.0,3.0,59,0.00,,,0.00,Wunderground v.1.15,2013-06-03 02:15:00,
2013-06-02 21:19:00,71.4,57.0,29.96,ENE,66,1.0,6.0,60,0.00,,,0.00,weatherlink.com 1.10,2013-06-03 02:19:00,
2013-06-02 21:25:00,71.1,56.5,29.96,East,90,2.0,6.0,60,0.00,,,0.00,Wunderground v.1.15,2013-06-03 02:25:00,
2013-06-02 21:30:00,70.9,56.3,29.96,ENE,70,3.0,3.0,60,0.00,,,0.00,Wunderground v.1.15,2013-06-03 02:30:00,
2013-06-02 21:34:00,70.7,56.0,29.96,East,89,2.0,7.0,60,0.00,,,0.00,weatherlink.com 1.10,2013-06-03 02:34:00,
2013-06-02 21:40:00,70.5,55.9,29.96,East,96,3.0,5.0,60,0.00,,,0.00,Wunderground v.1.15,2013-06-03 02:40:00,
2013-06-02 21:45:00,70.2,56.1,29.96,ENE,69,4.0,5.0,61,0.00,,,0.00,Wunderground v.1.15,2013-06-03 02:45:00,
2013-06-02 21:49:00,70.0,56.0,29.96,East,95,6.0,8.0,61,0.00,,,0.00,weatherlink.com 1.10,2013-06-03 02:49:00,
2013-06-02 21:55:00,69.8,55.7,29.96,East,84,5.0,7.0,61,0.00,,,0.00,Wunderground v.1.15,2013-06-03 02:55:00,
2013-06-02 22:00:00,69.7,55.6,29.97,ENE,59,4.0,4.0,61,0.00,,,0.00,Wunderground v.1.15,2013-06-03 03:00:00,
2013-06-02 22:04:00,69.6,56.0,29.97,ESE,103,2.0,7.0,62,0.00,,,0.00,weatherlink.com 1.10,2013-06-03 03:04:00,
2013-06-02 22:05:00,69.5,55.9,29.97,East,84,3.0,4.0,62,0.00,,,0.00,Wunderground v.1.15,2013-06-03 03:05:00,
2013-06-02 22:10:00,69.3,56.2,29.97,ESE,104,3.0,5.0,63,0.00,,,0.00,Wunderground v.1.15,2013-06-03 03:10:00,
2013-06-02 22:15:00,69.2,56.1,29.97,East,97,3.0,5.0,63,0.00,,,0.00,Wunderground v.1.15,2013-06-03 03:15:00,
2013-06-02 22:18:00,69.1,56.0,29.97,ENE,70,2.0,7.0,63,0.00,,,0.00,weatherlink.com 1.10,2013-06-03 03:18:00,
2013-06-02 22:25:00,68.9,56.2,29.98,NE,43,2.0,5.0,64,0.00,,,0.00,Wunderground v.1.15,2013-06-03 03:25:00,
2013-06-02 22:34:00,68.5,57.0,29.98,ENE,63,1.0,5.0,66,0.00,,,0.00,weatherlink.com 1.10,2013-06-03 03:34:00,
2013-06-02 22:40:00,68.3,56.5,29.97,East,80,2.0,2.0,66,0.00,,,0.00,Wunderground v.1.15,2013-06-03 03:40:00,
2013-06-02 22:49:00,68.1,57.0,29.98,East,84,1.0,5.0,68,0.00,,,0.00,weatherlink.com 1.10,2013-06-03 03:49:00,
2013-06-02 22:55:00,67.9,56.9,29.98,NE,55,2.0,2.0,68,0.00,,,0.00,Wunderground v.1.15,2013-06-03 03:55:00,
2013-06-02 23:00:00,67.7,56.8,29.98,NE,45,2.0,2.0,68,0.00,,,0.00,Wunderground v.1.15,2013-06-03 04:00:00,
2013-06-02 23:04:00,67.4,57.0,29.98,NE,44,1.0,4.0,69,0.00,,,0.00,weatherlink.com 1.10,2013-06-03 04:04:00,
2013-06-02 23:05:00,67.4,56.9,29.98,NE,44,2.0,2.0,69,0.00,,,0.00,Wunderground v.1.15,2013-06-03 04:05:00,
2013-06-02 23:10:00,67.2,57.1,29.98,ENE,64,2.0,3.0,70,0.00,,,0.00,Wunderground v.1.15,2013-06-03 04:10:00,
2013-06-02 23:15:00,67.0,57.3,29.98,ENE,58,2.0,3.0,71,0.00,,,0.00,Wunderground v.1.15,2013-06-03 04:15:00,
2013-06-02 23:19:00,66.8,57.0,29.98,NE,35,3.0,5.0,72,0.00,,,0.00,weatherlink.com 1.10,2013-06-03 04:19:00,
2013-06-02 23:20:00,66.8,57.5,29.98,NE,35,2.0,2.0,72,0.00,,,0.00,Wunderground v.1.15,2013-06-03 04:20:00,
2013-06-02 23:25:00,66.6,57.3,29.99,NNE,28,2.0,4.0,72,0.00,,,0.00,Wunderground v.1.15,2013-06-03 04:25:00,
2013-06-02 23:30:00,66.4,57.5,29.99,NE,45,3.0,3.0,73,0.00,,,0.00,Wunderground v.1.15,2013-06-03 04:30:00,
2013-06-02 23:34:00,66.3,57.0,29.99,NE,48,3.0,6.0,73,0.00,,,0.00,weatherlink.com 1.10,2013-06-03 04:34:00,
2013-06-02 23:40:00,66.2,57.7,29.99,East,90,3.0,3.0,74,0.00,,,0.00,Wunderground v.1.15,2013-06-03 04:40:00,
2013-06-02 23:45:00,66.0,57.5,29.99,East,90,2.0,3.0,74,0.00,,,0.00,Wunderground v.1.15,2013-06-03 04:45:00,
2013-06-02 23:49:00,65.9,58.0,29.98,East,88,3.0,5.0,75,0.00,,,0.00,weatherlink.com 1.10,2013-06-03 04:49:00,
2013-06-02 23:55:00,65.7,57.9,29.98,East,86,2.0,5.0,76,0.00,,,0.00,Wunderground v.1.15,2013-06-03 04:55:00,